Alexandroupoli, Greece

7:02 AM EEST on September 26, 2016 (GMT +0300)
Dimokritos

Weather History for LGAL - October, 2011

Change the Weather History Date:

Tuesday, October 25, 2011

  Actual Average Record
Temperature  
Mean Temperature 59 °F -  
Max Temperature 64 °F 63 °F 73 °F (2004)
Min Temperature 54 °F 46 °F 33 °F (2000)
Degree Days  
Heating Degree Days 6    
Growing Degree Days 9 (Base 50)    
Moisture  
Dew Point 48 °F    
Average Humidity 68    
Maximum Humidity 82    
Minimum Humidity 42    
Precipitation  
Precipitation 0.00 in - - ()
Sea Level Pressure  
Sea Level Pressure 30.20 in    
Wind  
Wind Speed 11 mph ()    
Max Wind Speed 18 mph    
Max Gust Speed -    
Visibility 6.2 miles    
Events      
Averages and records for this station are not official NWS values.
T = Trace of Precipitation, MM = Missing Value Source: Averaged Metar Reports

Daily Weather History Graph

Daily Weather History Graph

Search for Another Location

Airport or City:

Trip Planner

Search our weather history database for the weather conditions in past years. The results will help you decide how hot, cold, wet, or windy it might be!

Date:

Astronomy

Oct. 25, 2011 Rise Set
Actual Time 7:38 AM EEST 6:22 PM EEST
Civil Twilight 7:09 AM EEST 6:50 PM EEST
Nautical Twilight 6:37 AM EEST 7:22 PM EEST
Astronomical Twilight 6:06 AM EEST 7:53 PM EEST
Moon 5:46 AM EEST (10/25) 5:11 PM EEST (10/25)
Length of Visible Light 11h 40m
Length of Day
10h 44m
Waning Crescent, 3% of the Moon is Illuminated
Oct 25
Waning Crescent
Oct 26
New
Nov 2
First Quarter
Nov 10
Full
Nov 18
Last Quarter

Hourly Weather History & Observations

Time (EEST) Temp. Dew Point Humidity Pressure Visibility Wind Dir Wind Speed Gust Speed Precip Events Conditions
12:20 AM 55.4 °F 48.2 °F 77% 30.21 in 6.2 mi NNE 10.4 mph - N/A   Partly Cloudy
12:50 AM 55.4 °F 48.2 °F 77% 30.21 in 6.2 mi NNE 9.2 mph - N/A   Partly Cloudy
1:20 AM 55.4 °F 48.2 °F 77% 30.21 in 6.2 mi NNE 9.2 mph - N/A   Partly Cloudy
1:50 AM 55.4 °F 48.2 °F 77% 30.21 in 6.2 mi NNE 9.2 mph - N/A   Partly Cloudy
2:20 AM 55.4 °F 48.2 °F 77% 30.21 in 6.2 mi NNE 9.2 mph - N/A   Partly Cloudy
2:50 AM 55.4 °F 48.2 °F 77% 30.21 in 6.2 mi North 8.1 mph - N/A   Partly Cloudy
3:00 AM 55 °F 49 °F 73% 30.22 in 6 mi North 8.1 mph - -   Scattered Clouds
3:20 AM 55.4 °F 48.2 °F 77% 30.21 in 6.2 mi North 8.1 mph - N/A   Partly Cloudy
3:50 AM 55.4 °F 50.0 °F 82% 30.21 in 6.2 mi North 8.1 mph - N/A   Partly Cloudy
4:20 AM 55.4 °F 50.0 °F 82% 30.21 in 6.2 mi North 8.1 mph - N/A   Partly Cloudy
4:50 AM 55.4 °F 48.2 °F 77% 30.21 in 6.2 mi NNE 9.2 mph - N/A   Partly Cloudy
5:20 AM 55.4 °F 48.2 °F 77% 30.21 in 6.2 mi NNE 9.2 mph - N/A   Partly Cloudy
5:50 AM 55.4 °F 48.2 °F 77% 30.21 in 6.2 mi NNE 10.4 mph - N/A   Partly Cloudy
6:20 AM 55.4 °F 48.2 °F 77% 30.21 in 6.2 mi NNE 10.4 mph - N/A   Partly Cloudy
6:50 AM 55.4 °F 48.2 °F 77% 30.21 in 6.2 mi NNE 8.1 mph - N/A   Partly Cloudy
7:20 AM 55.4 °F 48.2 °F 77% 30.21 in 6.2 mi NNE 8.1 mph - N/A   Partly Cloudy
8:20 AM 55.4 °F 48.2 °F 77% 30.21 in 6.2 mi NNE 9.2 mph - N/A   Partly Cloudy
8:50 AM 57.2 °F 48.2 °F 72% 30.21 in 6.2 mi NNE 11.5 mph - N/A   Scattered Clouds
9:00 AM 56 °F 48 °F 67% 30.22 in 6 mi NNE 11.5 mph - -   Scattered Clouds
9:20 AM 57.2 °F 48.2 °F 72% 30.21 in 6.2 mi NNE 13.8 mph - N/A   Scattered Clouds
9:50 AM 57.2 °F 46.4 °F 67% 30.21 in 6.2 mi NNE 15.0 mph - N/A   Scattered Clouds
10:20 AM 59.0 °F 46.4 °F 63% 30.21 in 6.2 mi NNE 15.0 mph - N/A   Scattered Clouds
10:50 AM 60.8 °F 46.4 °F 59% 30.21 in 6.2 mi NNE 16.1 mph - N/A   Scattered Clouds
11:20 AM 60.8 °F 46.4 °F 59% 30.21 in 6.2 mi NNE 16.1 mph - N/A   Scattered Clouds
11:50 AM 60.8 °F 48.2 °F 63% 30.21 in 6.2 mi NNE 17.3 mph - N/A   Scattered Clouds
12:20 PM 60.8 °F 48.2 °F 63% 30.21 in 6.2 mi NNE 16.1 mph - N/A   Scattered Clouds
12:50 PM 62.6 °F 48.2 °F 59% 30.21 in 6.2 mi NE 17.3 mph - N/A   Scattered Clouds
1:20 PM 62.6 °F 48.2 °F 59% 30.21 in 6.2 mi NNE 15.0 mph - N/A   Scattered Clouds
1:50 PM 64.4 °F 48.2 °F 56% 30.18 in 6.2 mi NNE 15.0 mph - N/A   Scattered Clouds
2:20 PM 64.4 °F 46.4 °F 52% 30.18 in 6.2 mi NNE 15.0 mph - N/A   Scattered Clouds
2:50 PM 64.4 °F 46.4 °F 52% 30.18 in 6.2 mi NNE 17.3 mph - N/A   Scattered Clouds
3:00 PM 64 °F 47 °F 42% 30.20 in 6 mi NNE 17.3 mph - -   Partly Cloudy
3:20 PM 64.4 °F 46.4 °F 52% 30.18 in 6.2 mi NNE 17.3 mph - N/A   Scattered Clouds
3:50 PM 64.4 °F 46.4 °F 52% 30.18 in 6.2 mi NNE 18.4 mph - N/A   Scattered Clouds
4:20 PM 64.4 °F 46.4 °F 52% 30.18 in 6.2 mi NNE 17.3 mph - N/A   Scattered Clouds
4:50 PM 60.8 °F 46.4 °F 59% 30.15 in 6.2 mi NNE 18.4 mph - N/A   Partly Cloudy
5:20 PM 60.8 °F 46.4 °F 59% 30.15 in 6.2 mi NNE 18.4 mph - N/A   Scattered Clouds
5:50 PM 59.0 °F 48.2 °F 67% 30.18 in 6.2 mi North 13.8 mph - N/A   Scattered Clouds
6:20 PM 57.2 °F 48.2 °F 72% 30.18 in 6.2 mi North 13.8 mph - N/A   Scattered Clouds
6:50 PM 57.2 °F 46.4 °F 67% 30.21 in 6.2 mi NNE 11.5 mph - N/A   Mostly Cloudy
7:20 PM 57.2 °F 46.4 °F 67% 30.21 in 6.2 mi NNE 11.5 mph - N/A   Mostly Cloudy
7:50 PM 57.2 °F 48.2 °F 72% 30.21 in 6.2 mi NNE 10.4 mph - N/A   Scattered Clouds
8:20 PM 57.2 °F 48.2 °F 72% 30.21 in 6.2 mi NNE 11.5 mph - N/A   Scattered Clouds
8:50 PM 57.2 °F 48.2 °F 72% 30.21 in 6.2 mi NNE 17.3 mph - N/A   Scattered Clouds
9:00 PM 57 °F 48 °F 65% 30.23 in 6 mi NNE 17.3 mph - -   Partly Cloudy
9:50 PM 55.4 °F 48.2 °F 77% 30.21 in 6.2 mi NNE 11.5 mph - N/A   Scattered Clouds
10:20 PM 55.4 °F 48.2 °F 77% 30.21 in 6.2 mi NNE 13.8 mph - N/A   Scattered Clouds
10:50 PM 55.4 °F 48.2 °F 77% 30.24 in 6.2 mi NNE 11.5 mph - N/A   Mostly Cloudy
11:20 PM 55.4 °F 48.2 °F 77% 30.24 in 6.2 mi NNE 11.5 mph - N/A   Mostly Cloudy